This is the latest recevied weather packets stored in our database for station/object N4PWG. If no packets are shown the sender has not sent any weather packets the latest 10 day(s).
| Time | Temp. | Humidity | Pressure | Rain* | Wind** | Luminosity | Snow |
|---|---|---|---|---|---|---|---|
| 1777736165 | 18.33° C | 51% | 1035.4 hPa | 0 mm | - | 585 W/m² | - |
| 1777735863 | 17.78° C | 52% | 1035.3 hPa | 0 mm | - | 540 W/m² | - |
| 1777735560 | 18.33° C | 50% | 1035.3 hPa | 0 mm | - | 563 W/m² | - |
| 1777735257 | 18.33° C | 50% | 1035.4 hPa | 0 mm | - | 599 W/m² | - |
| 1777734954 | 18.89° C | 51% | 1035.4 hPa | 0 mm | - | 638 W/m² | - |
| 1777734652 | 18.33° C | 57% | 1035.6 hPa | 0 mm | - | 593 W/m² | - |
| 1777734349 | 17.22° C | 55% | 1035.7 hPa | 0 mm | - | 543 W/m² | - |
| 1777734045 | 17.78° C | 56% | 1035.5 hPa | 0 mm | - | 182 W/m² | - |
| 1777733741 | 17.78° C | 55% | 1035.5 hPa | 0 mm | - | 254 W/m² | - |
| 1777733438 | 18.33° C | 54% | 1035.6 hPa | 0 mm | - | 384 W/m² | - |
| 1777733135 | 17.78° C | 59% | 1035.5 hPa | 0 mm | - | 443 W/m² | - |
| 1777732831 | 17.22° C | 61% | 1035.3 hPa | 0 mm | - | 340 W/m² | - |
| 1777732528 | 17.22° C | 61% | 1035.5 hPa | 0 mm | - | 433 W/m² | - |
| 1777732226 | 16.67° C | 62% | 1035.4 hPa | 0 mm | - | 450 W/m² | - |
| 1777731923 | 16.11° C | 66% | 1035.3 hPa | 0 mm | - | 220 W/m² | - |
| 1777731620 | 15.56° C | 68% | 1035.3 hPa | 0 mm | - | 259 W/m² | - |
| 1777731317 | 15° C | 65% | 1035.4 hPa | 0 mm | - | 324 W/m² | - |
| 1777731015 | 15° C | 64% | 1035.6 hPa | 0 mm | - | 240 W/m² | - |
| 1777730713 | 15° C | 67% | 1035.6 hPa | 0 mm | - | 184 W/m² | - |
| 1777730409 | 15° C | 68% | 1035.4 hPa | 0 mm | - | 208 W/m² | - |
| 1777730104 | 15° C | 67% | 1035.6 hPa | 0 mm | - | 214 W/m² | - |
| 1777729801 | 14.44° C | 69% | 1035.3 hPa | 0 mm | - | 201 W/m² | - |
| 1777729498 | 15° C | 68% | 1035.3 hPa | 0 mm | - | 171 W/m² | - |
| 1777729195 | 14.44° C | 68% | 1035.4 hPa | 0 mm | - | 176 W/m² | - |
| 1777728891 | 13.89° C | 69% | 1035.5 hPa | 0 mm | - | 180 W/m² | - |
* Rain latest hour (hover to see other rain measurements)
** Current wind speed in m/s (hover to see current wind gust speed)